Location: ??
(38.4494°N, 106.3890°E)
Time: 22:00:06
(UTC+00:00)

Daily predictions for brighter satellites

Satellite Brightness Start Highest point End
(mag) Time Altitude Azimuth Time Altitude Azimuth Time Altitude Azimuth
USA 186 2.9 12:05:00 26° NE 12:05:00 26° NE 12:07:19 10° NNE
CZ-2C R/B 3.4 12:02:38 10° S 12:07:53 72° WSW 12:13:29 10° NNW
Cosmos 1025 Rocket 3.2 12:05:03 10° N 12:09:27 77° W 12:13:50 10° S
Cosmos 1766 3.6 12:08:32 26° SE 12:10:09 39° E 12:13:50 10° NNE
NOSS 3-2 (A) 4.1 12:03:26 10° NNW 12:11:15 85° ENE 12:19:02 13° SSE
TSX-5 3.6 12:13:30 10° SSW 12:17:02 67° ESE 12:21:29 10° NNE
SWAS 4.4 12:12:55 10° NNW 12:17:11 66° ENE 12:18:42 37° SE
Cosmos 1536 Rocket 3.6 12:13:42 10° N 12:18:11 85° W 12:22:39 10° S
ARGOS 3.1 12:16:21 10° SSE 12:21:43 87° ENE 12:27:07 10° NNW
SJ-6B 3.5 12:26:00 34° NE 12:26:00 34° NE 12:28:42 10° N
CZ-4 R/B 4.0 12:22:38 10° SSW 12:25:57 22° W 12:29:17 10° NW
MOS 1 Rocket 3.9 12:23:52 10° N 12:28:05 51° WNW 12:32:13 10° SSW
USA 234 3.8 12:28:24 33° ESE 12:29:02 34° SE 12:34:50 10° S
CZ-2C R/B 2.6 12:24:14 10° NNE 12:29:48 68° E 12:35:23 10° S
Cosmos 2082 Rocket 4.1 12:31:32 10° NNE 12:33:53 14° NE 12:33:53 14° NE
Abrixas rocket 4.1 12:35:47 10° NW 12:37:07 20° NNW 12:37:07 20° NNW
Cosmos 1674 2.9 12:36:05 10° NNW 12:39:54 67° W 12:40:51 46° SSW
DMSP B5D2-2 3.9 12:36:46 10° NNE 12:42:04 75° ESE 12:47:19 10° S
Nadezhda 4 Rocket 4.4 12:36:12 10° NNW 12:42:15 63° W 12:48:17 10° S
Cosmos 494 Rocket 4.2 12:42:06 10° NNW 12:47:22 71° WSW 12:49:35 35° S
H-2A R/B 3.4 12:44:08 10° SSW 12:48:41 36° W 12:53:23 10° NNW
Ariane Rocket 2.9 12:47:15 47° SSE 12:48:47 89° WSW 12:53:54 10° NNW
NOSS 3-2 (C) 4.1 12:41:30 10° NNW 12:49:19 88° WSW 12:53:40 34° SSE
NOSS 3-4 (A) 3.7 12:43:31 10° SW 12:49:20 66° NW 12:55:30 10° NNE
NOSS 3-4 (C) 3.7 12:43:37 10° SW 12:49:26 66° NW 12:55:37 10° NNE
Cosmos 1733 3.9 12:54:30 53° NW 12:54:30 53° NW 12:57:46 10° N
MetOp-A 4.0 12:54:51 64° SSE 12:55:42 84° ENE 13:01:06 10° NNW
SL-08 RB Rocket 4.3 12:55:22 32° SSW 12:57:10 53° W 13:01:38 10° NNW
Cosmos 1269 Rocket 3.9 12:52:21 10° NNW 12:57:42 77° ENE 12:57:44 77° ENE
IRS-1A Rocket 4.4 12:56:19 34° S 12:59:02 76° WSW 13:04:55 10° NNW
COSMOS 2406 3.5 12:54:41 10° NNW 12:59:37 49° NE 12:59:37 49° NE
Cosmos 2278 Rocket 3.7 12:55:18 10° SSW 13:05:10 18° NNE 13:06:32 10° NNE
Meteor 1-22 Rocket 4.4 12:57:47 10° SSW 13:03:38 80° W 13:09:42 10° N
Meteor 2-5 Rocket 4.0 13:03:18 10° NNW 13:08:58 69° W 13:10:42 45° SSW
CENTAUR R/B 3.3 13:00:57 10° NW 13:09:16 73° WSW 13:13:05 38° SSE
ATLAS 2AS CENTAUR R/B 3.5 13:04:04 10° SW 13:11:53 61° NW 13:19:44 10° NNE
Meteor 1-24 Rocket 3.7 13:06:50 10° N 13:12:29 84° W 13:12:45 80° SSW
ATLAS 3B R/B 3.0 13:14:27 10° NNW 13:20:48 51° NE 13:20:48 51° NE
Cosmos 1833 Rocket 3.5 13:21:13 10° NNW 13:25:05 42° N 13:25:05 42° N
Resurs 01 Rocket 3.9 13:33:08 19° N 13:33:08 19° N 13:34:26 10° N
Lacrosse 4 Rocket 4.2 13:27:30 10° N 13:27:38 11° N 13:27:38 11° N
Cosmos 2082 Rocket 4.2 14:13:41 10° NNW 14:15:44 23° NNW 14:15:44 23° NNW
ADEOS II 4.2 19:33:12 10° N 19:34:37 19° N 19:34:37 19° N
IDEFIX/ARIANE 42P 4.0 19:35:53 10° NNE 19:39:12 35° NE 19:39:12 35° NE
Cosmos 2360 Rocket 4.1 19:45:54 20° SE 19:47:32 23° E 19:51:52 10° NE
SL-4 R/B 4.1 19:59:32 29° NE 19:59:32 29° NE 20:01:54 10° NE
Cosmos 1980 Rocket 3.9 20:00:12 23° NNW 20:00:12 23° NNW 20:02:39 10° N
Cosmos 2263 Rocket 4.3 19:58:21 10° NNW 20:09:33 11° SSE 20:09:43 10° SSE
Cosmos 2322 Rocket 2.4 20:06:56 65° E 20:06:56 65° E 20:12:17 10° NNE
H-2A R/B 4.0 20:03:28 10° SE 20:07:14 29° ENE 20:11:04 10° N
CZ-2C R/B 4.3 20:05:27 10° NE 20:09:55 29° E 20:13:44 13° SSE
Cosmos 1727 Rocket 4.4 20:10:14 38° SSE 20:12:34 62° E 20:18:48 10° NNE
BREEZE M DEB (TANK) 4.2 19:58:40 10° WNW 20:15:31 69° NNE 20:20:04 10° ESE
BREEZE-M DEB (TANK) 4.1 20:14:12 60° W 20:15:46 78° NNW 20:39:22 10° ENE
Meteor 1-27 Rocket 4.4 20:15:06 30° SSE 20:17:48 54° E 20:23:32 10° NNE
Cosmos 1898 Rocket 4.0 20:13:03 10° N 20:18:16 58° ENE 20:23:28 10° SSE
SL-16 R/B 2.2 20:19:04 70° N 20:19:04 70° N 20:24:09 10° NNE
Spot 4 Rocket 4.5 20:15:08 10° N 20:19:05 53° N 20:19:05 53° N
Lacrosse 5 4.3 20:24:54 12° NNW 20:25:17 12° NNW 20:27:05 10° N
USA 267 3.4 20:20:19 10° NE 20:26:41 56° NW 20:27:34 52° WNW
IRIDIUM 104 4.3 20:27:18 10° N 20:32:33 84° E 20:33:55 51° S
Cosmos 1937 Rocket 3.8 20:33:07 10° NNW 20:38:13 62° ENE 20:43:18 10° SSE
Cosmos 841 Rocket 3.6 20:37:57 47° S 20:39:26 73° ESE 20:44:41 10° NNE
IRIDIUM 114 4.1 20:36:27 10° N 20:41:41 79° W 20:43:01 51° SSW
Cosmos 2208 Rocket 4.4 20:39:45 30° S 20:42:14 61° ESE 20:47:22 10° NNE
Cosmos 1666 4.5 20:38:32 10° N 20:40:07 24° N 20:40:07 24° N
Cosmos 1763 Rocket 3.8 20:45:03 49° NW 20:45:03 49° NW 20:49:53 10° N
Cosmos 1814 Rocket 4.3 20:42:30 29° S 20:45:03 64° ESE 20:50:16 10° NNE
ATLAS 2AS CENTAUR R/B 3.6 20:39:58 10° NNW 20:47:11 51° NE 20:53:48 10° SE
USA 32 4.0 20:44:39 10° N 20:49:56 84° E 20:55:11 10° S
ARIANE 5 R/B 4.0 20:46:34 10° NNW 20:49:06 22° NW 20:49:06 22° NW
IRIDIUM 103 4.2 20:45:39 10° N 20:50:49 64° W 20:52:09 47° SSW
Cosmos 1437 Rocket 4.4 20:49:07 10° SSE 20:52:31 32° E 20:55:58 10° NNE
X-37B 1.8 20:55:15 39° ESE 20:55:15 39° ESE 20:57:22 10° ESE
Meteor 1-5 Rocket 4.4 20:49:57 10° NNW 20:54:25 44° WNW 20:54:25 44° WNW
MSX 4.0 20:49:36 10° N 20:55:10 51° WNW 20:56:21 44° WSW
USA 234 3.8 20:52:57 10° ESE 20:59:19 58° NE 21:05:42 10° NW
Cosmos 2173 Rocket 4.2 20:53:29 10° N 20:59:51 73° E 21:06:13 10° SSE
Cosmos 540 Rocket 3.3 20:59:24 41° SW 21:01:09 70° WNW 21:06:20 10° NNE
Gbstr 26 Del rocket 4.3 20:55:45 18° NW 21:02:00 69° SW 21:09:00 10° SE
Cosmos 1707 Rocket 3.8 21:03:43 46° WNW 21:03:43 46° WNW 21:07:36 10° N
Cosmos 1536 2.7 20:59:56 10° N 21:04:00 79° W 21:08:03 10° S
Cosmos 2333 Rocket 3.4 21:00:35 10° S 21:05:57 42° ESE 21:11:20 10° NE
Intercosmos 25 4.1 21:05:59 10° S 21:09:59 49° E 21:13:09 10° NNE
Cosmos 44 Rocket 3.6 21:09:49 40° W 21:10:42 45° NW 21:15:22 10° NNE
Cosmos 2322 4.2 21:05:28 10° S 21:11:01 61° ESE 21:16:35 10° NNE
Cosmos 990 Rocket 4.4 21:07:59 10° NW 21:12:47 38° WSW 21:17:34 10° SSW
PAYLOAD A 3.8 21:09:38 10° N 21:14:14 57° WNW 21:16:43 26° SW
ADEOS 4.0 21:10:13 10° NNE 21:15:25 65° ESE 21:20:35 10° S
Cosmos 1570 Rocket 4.2 21:16:34 29° SW 21:18:59 50° WNW 21:24:12 10° N
DEBRIS 2.7 21:18:27 40° WNW 21:19:27 74° SW 21:26:06 10° SE
IDEFIX/ARIANE 42P 4.0 21:16:28 10° NNW 21:20:00 20° WNW 21:20:00 20° WNW
ERS-2 1.9 21:17:29 10° S 21:21:07 74° WSW 21:24:47 10° NNW
Cosmos 1733 Rocket 2.9 21:17:23 10° NNW 21:21:42 69° W 21:25:58 10° S
SL-19 R/B 4.3 21:19:49 10° NNE 21:24:12 86° ESE 21:27:56 10° SSW
CZ-4B R/B 1.8 21:22:25 10° SSE 21:25:32 60° ENE 21:28:44 10° N
Landsat 5 4.2 21:22:42 10° SSW 21:26:49 35° W 21:30:56 10° NNW
Cosmos 2242 Rocket 4.0 21:23:01 10° S 21:27:21 64° E 21:31:43 10° NNE
Cosmos 2333 4.2 21:23:22 10° SSW 21:29:09 89° ESE 21:34:58 10° NNE
Cosmos 2360 Rocket 2.5 21:27:44 21° SW 21:31:10 46° WNW 21:36:37 10° N
Cosmos 2016 Rocket 4.0 21:25:25 10° N 21:31:33 86° E 21:37:39 10° S
Cosmos 1743 2.6 21:28:38 10° N 21:32:26 86° ENE 21:36:15 10° S
Cosmos 1544 3.7 21:30:40 10° N 21:34:12 55° E 21:37:42 10° SSE
FENGYUN 3A 3.8 21:28:48 10° NNE 21:34:14 76° ESE 21:39:38 10° S
Meteor 1-18 Rocket 4.4 21:30:05 10° S 21:35:35 73° E 21:41:09 10° NNE
PSLV R/B 4.2 21:32:07 10° N 21:35:51 32° WNW 21:37:48 21° WSW
Cosmos 2061 Rocket 4.1 21:30:38 10° N 21:37:06 87° W 21:43:31 10° S
SL-4 R/B 4.1 21:35:08 14° WNW 21:37:42 21° NNW 21:41:21 10° NNE
Cosmos 1862 Rocket 3.9 21:34:38 13° SSW 21:38:13 40° W 21:42:21 10° N
ATLAS CENTAUR R/B 4.2 21:32:47 10° NW 21:39:15 27° NNE 21:42:26 10° E
H-2A R/B 3.1 21:39:35 10° SSW 21:43:08 24° W 21:46:46 10° NW
ALOS 2.2 21:39:13 10° NNE 21:43:54 86° WNW 21:48:34 10° SSW
CZ-2C R/B 3.3 21:43:30 10° N 21:48:04 32° WNW 21:52:37 10° SW
Cosmos 372 Rocket 3.9 21:45:08 10° NNW 21:50:10 59° WSW 21:55:09 10° S
Cosmos 2322 Rocket 3.7 21:48:47 14° W 21:51:11 18° NW 21:55:04 10° N
Cosmos 1844 Rocket 2.7 21:46:38 10° NNW 21:52:15 67° WSW 21:57:51 10° S
Cosmos 1864 Rocket 4.4 21:46:42 10° N 21:52:56 76° W 21:59:04 10° S
Cosmos 1725 Rocket 3.9 21:47:50 10° N 21:54:01 76° W 22:00:10 10° S
SAR-Lupe-4 3.5 21:51:37 10° S 21:55:10 63° W 21:58:44 10° NNW
Cosmos 2278 Rocket 4.5 21:51:31 10° N 21:56:13 26° ENE 22:00:53 10° ESE
USA 276 3.4 21:54:33 10° NW 21:57:36 39° NNE 22:00:39 10° ESE
Cosmos 1844 3.6 21:54:34 10° NNW 22:00:07 71° WSW 22:05:38 10° SSE
Cosmos 1975 2.9 21:59:12 10° N 22:03:13 85° E 22:07:11 10° S
SL-16 R/B 4.1 22:01:18 10° WNW 22:03:30 12° NW 22:05:42 10° NNW
Meteor 2-9 Rocket 4.1 22:00:35 10° N 22:06:03 89° W 22:11:23 10° S
Cosmos 1689 Rocket 2.0 22:03:15 10° SSE 22:06:11 89° WSW 22:09:10 10° NNW
FALCON 9 DEB 4.5 22:05:16 10° SSW 22:08:11 35° SE 22:11:06 10° ENE
Cosmos 2298 Rocket 4.1 22:07:33 10° NNW 22:12:44 56° WSW 22:17:53 10° S
Cosmos 1484 Rocket 3.6 22:09:54 10° N 22:13:30 33° WNW 22:17:06 10° SW
ADEOS Rocket 3.7 22:07:34 10° SSW 22:13:39 35° W 22:19:14 10° NNW
Cosmos 836 Rocket 4.5 22:09:00 10° SSW 22:14:09 68° WNW 22:19:21 10° NNE
NOSS 3-4 (A) 4.4 22:07:35 10° NW 22:14:19 41° WSW 22:21:37 10° S
NOSS 3-4 (C) 4.3 22:07:41 10° NW 22:14:26 42° WSW 22:21:45 10° S
Cosmos 1515 4.4 22:12:19 10° SW 22:15:44 32° WNW 22:19:11 10° NNW
COSMO-SKYMED 1 2.6 22:12:05 10° SSE 22:16:25 87° WSW 22:20:47 10° NNW
FALCON 9 DEB 4.0 22:14:45 10° SSW 22:17:47 45° SE 22:20:50 10° ENE
Cosmos 2219 Rocket 2.4 22:13:43 10° SW 22:19:13 51° WNW 22:24:46 10° NNE
